Retour au catalogue

HULIANWANG DIGUI-78

ActifCommunicationsLEO
NORAD 65310·PAYLOAD·🇨🇳 China

Lancé Aug 25, 2025 depuis Wenchang Space Launch Site

Loading…

Prochains Passages (prochaines 24 heures)

TLE

FraisSource: Space-Track

Époque: Sep 14, 2026, 22:50 UTC

1 65310U 25187F   26257.95206649 -.00000097  00000-0  58076-4 0  9998
2 65310  50.0096 243.9036 0000676 337.1777  22.9065 13.29325152 51641

Suivez HULIANWANG DIGUI-78 en temps réel avec AllMySat

Download on the App Store